Weather History for New York JFK, NY

Change the Weather History Date:

Wednesday, February 20, 2013

  Actual Average Record
Temperature  
Mean Temperature 33 °F 36 °F  
Max Temperature 39 °F 43 °F 61 °F (1949)
Min Temperature 26 °F 29 °F 7 °F (1950)
Degree Days  
Heating Degree Days 32 29  
Month to date heating degree days 652 615  
Since 1 July heating degree days 3122 3285  
Cooling Degree Days 0 0  
Month to date cooling degree days 0 0  
Year to date cooling degree days 0 0  
Moisture  
Dew Point 11 °F    
Average Humidity 46    
Maximum Humidity 59    
Minimum Humidity 33    
Precipitation  
Precipitation 0.00 in 0.09 in 1.09 in (1981)
Month to date precipitation 1.62 1.79  
Year to date precipitation 4.01 4.95  
Snow  
Snow 0.00 in 0.30 in 1.00 in (1977)
Month to date snowfall 7.4 6.1  
Since 1 July snowfall 13.2 17.3  
Snow Depth 0.00 in    
Sea Level Pressure  
Sea Level Pressure 29.86 in    
Wind  
Wind Speed 21 mph (WNW)    
Max Wind Speed 32 mph    
Max Gust Speed 41 mph    
Visibility 10 miles    
Events      
T = Trace of Precipitation, MM = Missing Value Source: NWS Daily Summary

Daily Weather History Graph

Daily Weather History Graph

Search for Another Location

Airport:

Trip Planner

Search our weather history database for the weather conditions in past years. The results will help you decide how hot, cold, wet, or windy it might be!

Date:

Astronomy

Feb. 20, 2013 Rise Set
Actual Time 6:41 AM EST 5:36 PM EST
Civil Twilight 6:14 AM EST 6:04 PM EST
Nautical Twilight 5:42 AM EST 6:35 PM EST
Astronomical Twilight 5:10 AM EST 7:07 PM EST
Moon 12:54 PM EST (2/20) 3:00 AM EST (2/20)
Length of Visible Light 11h 50m
Length of Day
10h 54m
Waxing Gibbous, 76% of the Moon is Illuminated
Feb 20
Waxing Gibbous
Feb 25
Full
Mar 4
Last Quarter
Mar 11
New
Mar 19
First Quarter

Hourly Weather History & Observations

Time (EST) Temp. Windchill Dew Point Humidity Pressure Visibility Wind Dir Wind Speed Gust Speed Precip Events Conditions
12:51 AM 37.0 °F 25.6 °F 21.9 °F 54% 29.74 in 10.0 mi WNW 24.2 mph 32.2 mph N/A   Partly Cloudy
1:51 AM 36.0 °F 25.6 °F 19.9 °F 52% 29.75 in 10.0 mi West 18.4 mph 25.3 mph N/A   Partly Cloudy
2:51 AM 35.1 °F 25.2 °F 19.9 °F 54% 29.75 in 10.0 mi West 16.1 mph - N/A   Partly Cloudy
3:51 AM 33.1 °F 21.2 °F 19.9 °F 59% 29.75 in 10.0 mi West 20.7 mph 28.8 mph N/A   Partly Cloudy
4:51 AM 32.0 °F 18.9 °F 12.9 °F 45% 29.78 in 10.0 mi West 24.2 mph 33.4 mph N/A   Partly Cloudy
5:51 AM 30.9 °F 18.7 °F 14.0 °F 50% 29.80 in 10.0 mi West 19.6 mph 24.2 mph N/A   Partly Cloudy
6:51 AM 30.9 °F 19.4 °F 14.0 °F 50% 29.83 in 10.0 mi West 17.3 mph 29.9 mph N/A   Partly Cloudy
7:51 AM 30.9 °F 17.2 °F 14.0 °F 50% 29.85 in 10.0 mi West 25.3 mph 32.2 mph N/A   Scattered Clouds
8:51 AM 32.0 °F 19.2 °F 10.0 °F 40% 29.86 in 10.0 mi WNW 23.0 mph 28.8 mph N/A   Scattered Clouds
9:51 AM 33.1 °F 21.2 °F 8.1 °F 35% 29.87 in 10.0 mi West 20.7 mph 31.1 mph N/A   Scattered Clouds
10:51 AM 32.0 °F 19.8 °F 8.1 °F 37% 29.86 in 10.0 mi West 20.7 mph 31.1 mph N/A   Mostly Cloudy
11:51 AM 30.9 °F 18.4 °F 10.9 °F 43% 29.85 in 10.0 mi West 20.7 mph 28.8 mph N/A   Mostly Cloudy
12:51 PM 33.1 °F 22.2 °F 9.0 °F 37% 29.86 in 10.0 mi West 17.3 mph 35.7 mph N/A   Mostly Cloudy
1:51 PM 32.0 °F 19.5 °F 8.1 °F 37% 29.85 in 10.0 mi WNW 21.9 mph 32.2 mph N/A   Mostly Cloudy
2:51 PM 32.0 °F 18.4 °F 8.1 °F 37% 29.86 in 10.0 mi West 26.5 mph 35.7 mph N/A   Mostly Cloudy
3:51 PM 32.0 °F 18.9 °F 6.1 °F 34% 29.88 in 10.0 mi West 24.2 mph 31.1 mph N/A   Mostly Cloudy
4:51 PM 30.9 °F 18.4 °F 7.0 °F 37% 29.89 in 10.0 mi West 20.7 mph 27.6 mph N/A   Mostly Cloudy
5:51 PM 30.0 °F 16.9 °F 7.0 °F 38% 29.92 in 10.0 mi West 21.9 mph 35.7 mph N/A   Mostly Cloudy
6:51 PM 30.0 °F 16.3 °F 9.0 °F 41% 29.95 in 10.0 mi West 24.2 mph 31.1 mph N/A   Mostly Cloudy
7:51 PM 28.9 °F 15.8 °F 10.9 °F 47% 29.94 in 10.0 mi WNW 20.7 mph 36.8 mph N/A   Scattered Clouds
8:51 PM 28.0 °F 16.1 °F 10.9 °F 49% 29.97 in 10.0 mi WNW 16.1 mph 27.6 mph N/A   Scattered Clouds
9:51 PM 27.0 °F 12.2 °F 7.0 °F 43% 29.96 in 10.0 mi WNW 24.2 mph 33.4 mph N/A   Partly Cloudy
10:51 PM 27.0 °F 12.5 °F 6.1 °F 41% 29.99 in 10.0 mi WNW 23.0 mph 29.9 mph N/A   Partly Cloudy
11:51 PM 26.1 °F 12.7 °F 7.0 °F 44% 29.99 in 10.0 mi WNW 18.4 mph 25.3 mph N/A   Partly Cloudy